Flag for Norway Weather past 2 weeks in Nesodden, Norway

Now
37 °F

Light rain. Passing clouds.


Feels Like: 26 °F
Forecast: 28 / 35 °F
Wind: 26 mph from North

Location: Oslo / Fornebu

Current Time: Jan 28, 2015 at 8:24:09 PM

Latest Report: Jan 28, 2015 at 7:50 PM


Visibility: 2 mi

Pressure: 28.53 "Hg

Humidity: 93%

Dew point: 36 °F

Location of NesoddenLocation

Historic Weather in Nesodden — Graph

°F

Nesodden temperature yesterday

Maximum temperature yesterday: 46 °F (at 11:20 AM)
Minimum temperature yesterday: 43 °F (at 12:20 AM)
Average temperature yesterday: 45 °F

Past Weeks' High & Low Weather Summary

 TemperatureHumidityPressure
High48 °F (Jan 25, 6:20 PM)100% (Jan 23, 5:50 PM)30.15 "Hg (Jan 23, 5:50 PM)
Low36 °F (Jan 13, 11:50 PM)49% (Jan 21, 10:20 PM)28.38 "Hg (Jan 15, 9:50 PM)
Average43 °F76%29.47 "Hg
* Reported Jan 13 6:20 PM — Jan 28 6:50 PM, Nesodden, Weather by CustomWeather, © 2014

Note: Actual official high and low records may vary slightly from our data, if they occured in-between our weather recording intervals... More about our weather records

Advertising

Nesodden weather history for previous 24 hours

 ConditionsComfort  
Time TempWeatherWind HumidityBarometerVisibility
6:50 PM
Jan 28
37 °FRain. Passing clouds.28 mph93%28.53 "Hg3 mi
6:20 PM37 °FHeavy rain. Passing clouds.29 mph100%28.53 "Hg2 mi
5:50 PM37 °FRain. Passing clouds.28 mph100%28.53 "Hg2 mi
5:20 PM37 °FRain. Passing clouds.30 mph100%28.56 "Hg2 mi
4:50 PM41 °FHeavy rain. Passing clouds.25 mph87%28.56 "Hg3 mi
4:20 PM43 °FBroken clouds.10 mph87%28.59 "HgN/A
3:50 PM43 °FScattered clouds.6 mph81%28.59 "HgN/A
3:20 PM45 °FBroken clouds.7 mph81%28.62 "HgN/A
2:50 PM43 °FPartly sunny.12 mph87%28.62 "HgN/A
2:20 PM43 °FBroken clouds.14 mph81%28.65 "HgN/A
1:50 PM45 °FPartly sunny.16 mph81%28.65 "HgN/A
1:20 PM45 °FBroken clouds.16 mph81%28.68 "HgN/A
12:50 PM43 °FPassing clouds.21 mph87%28.68 "HgN/A
12:20 PM45 °FPassing clouds.18 mph81%28.71 "HgN/A
11:50 AM45 °FPassing clouds.23 mph81%28.74 "HgN/A
11:20 AM45 °FScattered clouds.24 mph81%28.74 "HgN/A
10:50 AM45 °FPassing clouds.22 mph87%28.77 "HgN/A
10:20 AM45 °FBroken clouds.26 mph87%28.80 "HgN/A
9:50 AM45 °FPartly sunny.24 mph93%28.82 "HgN/A
9:20 AM45 °FSprinkles. Partly sunny.28 mph93%28.82 "HgN/A
8:50 AM45 °FBroken clouds.32 mph93%28.82 "HgN/A
8:20 AM45 °FSprinkles. Passing clouds.33 mph100%28.85 "HgN/A
7:50 AM45 °FSprinkles. Fog.35 mph100%28.88 "Hg1 mi
7:20 AM45 °FPassing clouds.33 mph100%28.91 "HgN/A
6:50 AM45 °FLight rain. Passing clouds.35 mph100%28.94 "HgN/A
6:20 AM43 °FLight rain. Mostly cloudy.37 mph100%28.97 "Hg4 mi
5:50 AM45 °FLight rain. Overcast.38 mph93%29.00 "Hg4 mi
5:20 AM45 °FLight rain. Fog.40 mph93%29.00 "Hg2 mi
4:50 AM45 °FLight rain. Fog.43 mph93%29.06 "Hg1 mi
4:20 AM45 °FLight rain. Fog.36 mph93%29.09 "Hg1 mi
3:50 AM45 °FLight rain. Fog.43 mph93%29.12 "Hg2 mi
3:20 AM45 °FLight rain. Fog.44 mph93%29.12 "Hg2 mi
2:50 AM45 °FLight rain. Fog.40 mph100%29.18 "Hg2 mi
2:20 AM45 °FLight rain. Fog.40 mph100%29.21 "Hg2 mi
1:50 AM45 °FSprinkles. Fog.40 mph100%29.24 "Hg2 mi
1:20 AM45 °FSprinkles. Passing clouds.40 mph100%29.27 "Hg5 mi
12:50 AM45 °FSprinkles. Passing clouds.40 mph100%29.30 "Hg6 mi
12:20 AM46 °FOvercast.38 mph87%29.33 "HgN/A
11:50 PM
Jan 27
46 °FSprinkles. Overcast.36 mph87%29.33 "HgN/A
11:20 PM46 °FLight rain. Passing clouds.40 mph93%29.36 "HgN/A
10:50 PM46 °FLight rain. Passing clouds.38 mph93%29.39 "HgN/A
10:20 PM46 °FLight rain. Overcast.36 mph93%29.42 "Hg5 mi
9:50 PM46 °FLight rain. Partly cloudy.39 mph93%29.42 "Hg5 mi
9:20 PM46 °FLight rain. Passing clouds.40 mph93%29.45 "Hg4 mi
8:50 PM46 °FLight rain. Passing clouds.39 mph93%29.47 "Hg4 mi
8:20 PM46 °FLight rain. Fog.44 mph93%29.47 "Hg2 mi
Weather by CustomWeather, © 2014

See weather overviewHow to use our weather pages